User: anonymous   Login
Location: Buch am Rannenberg
(48.6989°N, 10.6399°E)
Time: 10:20:21
(UTC+00:00)
Language:

Cosmos 1315 Rocket - Orbit

View from above orbital plane
View from above orbital plane
View from above satellite
View from above satellite

Ground track
Ground track

The orbit data is extracted from the following two-line orbital elements,

1 12904U 81103B   21166.89651743  .00000234  00000-0  14343-4 0  9996
2 12904  81.1781  47.4982 0027266 300.3106  59.5420 15.06028064712258
Epoch (UTC): 15 June 2021 21:30:59
Eccentricity: 0.0027266
inclination: 81.1781°
perigee height: 529 km
apogee height: 567 km
right ascension of ascending node: 47.4982°
argument of perigee: 300.3106°
revolutions per day: 15.06028064
mean anomaly at epoch: 59.5420°
orbit number at epoch: 71225

The dashed part of the orbit path shows where the satellite is in the earth's shadow,  

DLR